Flag for U.S.A. Weather past 2 weeks in Toccoa, Georgia, U.S.A.

Now
93 °F

Sunny.


Feels Like: 95 °F
Forecast: 69 / 91 °F
Wind: 5 mph from Southwest

Location: Clemson-Oconee County Airport

Current Time: Sep 4, 2015 at 5:50:55 PM

Latest Report: Sep 4, 2015 at 4:54 PM


Visibility: 10 mi

Pressure: 29.94 "Hg

Humidity: 38%

Dew point: 64 °F

Location of ToccoaLocation

Historic Weather in Toccoa — Graph

°F

Toccoa temperature yesterday

Maximum temperature yesterday: 93 °F (at 2:54 PM)
Minimum temperature yesterday: 75 °F (at 4:54 AM)
Average temperature yesterday: 82 °F

Past Weeks' High & Low Weather Summary

 TemperatureHumidityPressure
High94 °F (Sep 4, 3:54 PM)91% (Aug 22, 3:54 AM)30.22 "Hg (Aug 22, 3:54 AM)
Low63 °F (Aug 31, 6:54 AM)37% (Sep 4, 3:54 PM)29.86 "Hg (Aug 24, 6:54 PM)
Average78 °F68%30.03 "Hg
* Reported Aug 20 3:54 PM — Sep 4 3:54 PM, Toccoa, Weather by CustomWeather, © 2015

Note: Actual official high and low records may vary slightly from our data, if they occured in-between our weather recording intervals... More about our weather records

Advertising

Toccoa weather history for previous 24 hours

 ConditionsComfort  
Time TempWeatherWind HumidityBarometerVisibility
3:54 PM
Fri, Sep 4
94 °FSunny.3 mph37%29.95 "Hg10 mi
2:54 PM93 °FSunny.5 mph41%29.98 "Hg10 mi
1:54 PM91 °FSunny.3 mph44%29.99 "Hg10 mi
12:54 PM91 °FSunny.6 mph47%30.00 "Hg10 mi
11:54 AM90 °FSunny.3 mph48%30.01 "Hg10 mi
10:54 AM87 °FSunny.5 mph55%30.02 "Hg10 mi
9:54 AM82 °FSunny.3 mph65%30.01 "Hg10 mi
8:54 AM77 °FSunny.5 mph74%30.00 "Hg10 mi
7:54 AM73 °FClear.5 mph84%29.99 "Hg10 mi
6:54 AM72 °FClear.No wind84%29.98 "Hg10 mi
5:54 AM73 °FClear.3 mph81%29.96 "Hg10 mi
4:54 AM74 °FClear.3 mph79%29.95 "Hg10 mi
3:54 AM74 °FClear.3 mph79%29.94 "Hg10 mi
2:54 AM75 °FClear.No wind79%29.93 "Hg10 mi
1:54 AM74 °FClear.No wind82%29.93 "Hg10 mi
12:54 AM76 °FClear.3 mph77%29.93 "Hg10 mi
11:54 PM
Thu, Sep 3
77 °FClear.3 mph71%29.93 "Hg10 mi
10:54 PM77 °FClear.5 mph62%29.94 "Hg10 mi
9:54 PM77 °FClear.6 mph62%29.93 "Hg10 mi
8:54 PM78 °FSunny.No wind60%29.92 "Hg10 mi
7:54 PM80 °FSunny.6 mph62%29.91 "Hg10 mi
6:54 PM83 °FPassing clouds.9 mph61%29.91 "Hg10 mi
5:54 PM87 °FSunny.5 mph48%29.91 "Hg10 mi
Weather by CustomWeather, © 2015

See weather overviewHow to use our weather pages